Погода в Сухой Терешке

Россия / Ульяновская область     52°58′38″N   47°29′30″E
темп.,
°C
ветер,
м/с
пор.,
м/с
влажн.,
%
обл.,
%
осадки,
мм/ч
давл.,
гПа
погр.,
м
13 мая, чт
чт1301:00+15в228586 0.0 102218
04:00+13всв36762 0.0 1021120
07:00+14вюв51381100 0.7 1021482
10:00+15вюв51282100 1.8 1020384
13:00+23юв91655100 0.0 10191634
16:00+23юв81659100 0.0 10191716
19:00+21юв714600 0.1 1019519
22:00+16вюв4117698 1.0 1019190
14 мая, пт
пт1401:00+14юв338228 0.1 102037
04:00+13юв227918 0.1 102011
07:00+16вюв237267 0.0 1021111
10:00+21ююв475499 0.0 1020466
13:00+24ююв6943100 0.0 1020939
16:00+26ю610440 0.0 10201403
19:00+23ююв4105797 0.0 1019243
22:00+18ююв4126325 0.0 1020183
15 мая, сб
сб1501:00+16ююв31258100 0.0 1020204
04:00+15ююв335766 0.0 102025
07:00+17ююв37605 0.0 1020144
10:00+23ю694324 0.0 1020450
13:00+26ю710348 0.0 1020962
16:00+27ю6113521 0.0 10191809
19:00+23ююв411505 0.0 1018238
22:00+18ююв4115153 0.0 1018155
16 мая, вс
вс1601:00+17ююв34525 0.0 101750
04:00+16ююв34565 0.0 101741
07:00+18ююв376071 0.0 1018143
10:00+24ю594453 0.0 1017458
13:00+27ююз683843 0.0 10171133
16:00+27ююз583843 0.0 10172018
19:00+24ююз1251100 0.0 101611
22:00+20ююв1153100 0.0 101611
17 мая, пн
пн1701:00+19ююв1152100 0.0 101611
04:00+18юв115479 0.0 101611
07:00+19зсз236283 0.0 101792
10:00+25ююз354329 0.0 1017436
13:00+29ю34345 0.0 10171309
16:00+29ююз45286 0.0 10173071
19:00+27с004264 0.0 101711
22:00+21в114683 0.0 101711